Location: Shenandoah County Park
(38.9356°N, 78.4524°W)
Time: 06:50:22
(UTC-05:00)

N. Korean satellite - Pass Details

Date: 07 December 2021
Orbit: 446 x 491 km, 97.3° (Epoch: 19 January)

Event Time Altitude Azimuth Distance (km) Brightness Sun altitude
Rises 06:11:06 0° 356° (N) 2,456 9.9 -13.0°
Reaches altitude 10° 06:13:26 10° 341° (NNW) 1,578 8.8 -12.5°
Maximum altitude 06:16:04 22° 289° (WNW) 1,045 7.6 -12.0°
Drops below altitude 10° 06:18:41 10° 238° (WSW) 1,571 8.8 -11.6°
Sets 06:21:01 0° 222° (SW) 2,442 9.9 -11.1°
